Showing default

ICEYE-X2, 43800

Orbit data source: Space-Track

ICEYE-X2, 43800 is a payload satellite owned by ICEYE (FI) in SSO that was launched on Mon, 03 Dec 2018 UTC via an FALCON 9 launch vehicle from the Air Force Western Test Range (AFWTR). Payload-class satellites include a variety of spacecraft equipped with specific instruments for various scientific and technological missions. These include communications satellites like Starlink; space stations such as the ISS; scientific satellites like the Hubble; Earth observation satellites from companies like Planet Labs, Umbra, and HawkEye 360; GPS; miniature CubeSats for education and research; and military/defense satellites.

Loading next visibility...
Identifier
43800, 2018-099AU
Orbit
SSO
Country
Flag of FIFI / FIN
Related business
Manufacturer
ICEYE
Mission
Operational Commercial Radar Imaging
Bus & Motor
ICEYE, Unknown motor
Mass
80 kg wet, 80 kg dry
Launch date (UTC)
2018-12-03 (7 years ago)
Launch vehicle
FALCON 9
Launch site
Air Force Western Test Range (AFWTR)
Object type
Payload
Rocket body
Debris
Shape & HBR
Box + 1 Pan, 1.6 m
Radar Cross Section
1.837 m², Medium (>0.1 m² and < 1m²)

Expand to show TLE details & history
Last TLE update: 16 hours ago

TLE from 16 hours ago
0 ICEYE-X2
1 43800U 18099AU  25341.31798305  .00010826  00000-0  58374-3 0  9990
2 43800  97.4644  33.6083 0009519 245.8818 114.1419 15.14912237383745
Epoch: 2025-12-07T07:37Z
TLE epoch observation values (Epoch: 2025-12-07T07:37:53.735Z)
Latitude
-0.00003°
Longitude
-157.19869°
Altitude
527.019 km
Speed
7.598 km/s
True Right ascension
02h 14m 25s
True Declination
0° 00' 00"
Sunlit
Object was in full shadow at epoch
Visualization orbit readout
Latitude
Unknown
Longitude
Unknown
Altitude
Unknown
Speed
Unknown
Apparent Right ascension
Unknown
Apparent Declination
Unknown
Sunlit
N/A
Visualization observer readout
Local Sidereal Time
21:28:21
Azimuth
Unknown
Elevation
Unknown
Doppler factor
Unknown
Orbital elements
Apogee altitude
524.785 km
Perigee altitude
511.655 km
Semi-major axis
6,896.357 km
Eccentricity
0.00095
Inclination
97.4644°
RAAN
33.6083°
Arg. of periapsis
245.8818°
True anomaly
114.24139°
Mean anomaly
114.1419°
Eccentric anomaly
114.19165°
Mean motion
3.78978 °/min
Orbital period
94.99 mins
BSTAR
0.00058374
Loading maneuver chart data...
Computing Atmospheric mass density...
Loading historical data...
Loading historical data...
Loading historical data...
Loading historical data...
Loading historical data...
Loading historical data...
Loading historical data...

Documentation

Showing up to 5 results
|